Location: Unspecified
(0.0000°N, 0.0000°E)
Time: 15:18:30
(UTC+00:00)

FENGYUN 1C DEB - Pass Details

Date: 17 February 2026
Orbit: 819 x 963 km, 99.2° (Epoch: 3 October)

Event Time Altitude Azimuth Distance (km) Brightness Sun altitude
Rises 03:38:47 0° 145° (SE) 3,518 ? -37.8°
Reaches altitude 10° 03:41:36 10° 132° (SE) 2,554 ? -37.1°
Maximum altitude 03:46:14 26° 77° (ENE) 1,641 ? -36.0°
Enters shadow 03:48:38 19° 40° (NE) 1,910 ? -35.4°
